LIFTER4 EDDW-EDDH

Flight info

Callsign LIFTER4
Flight time 0h 38m
Altitude 9000
Route WSN Y850 MUBZI M105 RIBSO
Aircraft A400/H-SDE2E3FGHIJ4J5M1RWXY/LB1D1

Departure

Time 2026-04-26 15:33
Airport Bremen Airport (EDDW)

Arrival

Time 2026-04-26 16:11
Airport Hamburg Helmut Schmidt Airport (EDDH)
Time Latitude Longitude Altitude Speed Heading
2026-04-26 15:14 53.05067 8.78364 29 ft 0 kts 49°
2026-04-26 15:28 53.05073 8.78382 29 ft 3 kts 62°
2026-04-26 15:28 53.05085 8.78435 29 ft 6 kts 76°
2026-04-26 15:28 53.05069 8.78521 28 ft 10 kts 133°
2026-04-26 15:29 53.05010 8.78613 27 ft 13 kts 138°
2026-04-26 15:29 53.04933 8.78647 27 ft 11 kts 172°
2026-04-26 15:29 53.04854 8.78832 30 ft 13 kts 87°
2026-04-26 15:30 53.04861 8.79118 28 ft 11 kts 87°
2026-04-26 15:30 53.04864 8.79230 31 ft 9 kts 87°
2026-04-26 15:30 53.04866 8.79331 31 ft 9 kts 88°
2026-04-26 15:31 53.04868 8.79455 31 ft 12 kts 88°
2026-04-26 15:31 53.04875 8.79765 32 ft 16 kts 88°
2026-04-26 15:31 53.04843 8.79947 30 ft 17 kts 140°
2026-04-26 15:32 53.04715 8.79857 29 ft 17 kts 262°
2026-04-26 15:32 53.04693 8.79101 29 ft 97 kts 265°
2026-04-26 15:32 53.04670 8.77542 68 ft 163 kts 268°
2026-04-26 15:33 53.04665 8.75590 656 ft 170 kts 269°
2026-04-26 15:33 53.04626 8.73619 1424 ft 176 kts 267°
2026-04-26 15:33 53.04563 8.71425 1776 ft 204 kts 272°
2026-04-26 15:33 53.05022 8.69068 2024 ft 232 kts 309°
2026-04-26 15:34 53.06410 8.67597 2476 ft 248 kts 346°
2026-04-26 15:34 53.08145 8.67571 3230 ft 254 kts 12°
2026-04-26 15:34 53.09800 8.68564 4047 ft 257 kts 23°
2026-04-26 15:34 53.11434 8.69835 4910 ft 261 kts 25°
2026-04-26 15:35 53.13090 8.71147 5796 ft 265 kts 24°
2026-04-26 15:35 53.14767 8.72449 6715 ft 267 kts 23°
2026-04-26 15:35 53.16466 8.73746 7567 ft 270 kts 22°
2026-04-26 15:35 53.18186 8.75047 8414 ft 273 kts 22°
2026-04-26 15:36 53.19936 8.76362 9042 ft 277 kts 21°
2026-04-26 15:36 53.21711 8.77695 9298 ft 280 kts 21°
2026-04-26 15:36 53.23465 8.79011 9315 ft 279 kts 21°
2026-04-26 15:36 53.25237 8.80341 9313 ft 279 kts 21°
2026-04-26 15:37 53.26952 8.81860 9310 ft 281 kts 32°
2026-04-26 15:37 53.28510 8.83839 9310 ft 282 kts 36°
2026-04-26 15:37 53.30002 8.85986 9309 ft 283 kts 39°
2026-04-26 15:37 53.31444 8.88230 9310 ft 283 kts 41°
2026-04-26 15:38 53.32858 8.90525 9304 ft 283 kts 41°
2026-04-26 15:38 53.34260 8.92839 9304 ft 283 kts 41°
2026-04-26 15:38 53.35665 8.95163 9302 ft 283 kts 41°
2026-04-26 15:38 53.37071 8.97480 9301 ft 283 kts 41°
2026-04-26 15:39 53.38479 8.99790 9301 ft 283 kts 41°
2026-04-26 15:39 53.39891 9.02098 9310 ft 283 kts 41°
2026-04-26 15:39 53.41303 9.04401 9304 ft 283 kts 41°
2026-04-26 15:39 53.42238 9.05923 9303 ft 283 kts 41°
2026-04-26 15:40 53.44128 9.09005 9303 ft 283 kts 41°
2026-04-26 15:40 53.45521 9.11279 9298 ft 283 kts 41°
2026-04-26 15:40 53.46931 9.13582 9298 ft 283 kts 41°
2026-04-26 15:40 53.48341 9.15887 9298 ft 283 kts 41°
2026-04-26 15:41 53.49749 9.18194 9295 ft 283 kts 41°
2026-04-26 15:41 53.51156 9.20500 9295 ft 283 kts 41°
2026-04-26 15:41 53.52564 9.22811 9296 ft 283 kts 41°
2026-04-26 15:41 53.53970 9.25121 9294 ft 283 kts 41°
2026-04-26 15:42 53.55378 9.27436 9297 ft 283 kts 41°
2026-04-26 15:42 53.56784 9.29751 9299 ft 283 kts 41°
2026-04-26 15:42 53.58193 9.32072 9296 ft 283 kts 41°
2026-04-26 15:42 53.59598 9.34390 9293 ft 283 kts 41°
2026-04-26 15:43 53.61006 9.36714 9294 ft 283 kts 41°
2026-04-26 15:43 53.62412 9.39039 9291 ft 283 kts 41°
2026-04-26 15:43 53.65207 9.43666 9288 ft 283 kts 41°
2026-04-26 15:44 53.66628 9.46022 9291 ft 283 kts 41°
2026-04-26 15:44 53.68980 9.51258 9295 ft 289 kts 65°
2026-04-26 15:44 53.69659 9.54470 9283 ft 290 kts 68°
2026-04-26 15:45 53.70913 9.60966 9284 ft 291 kts 69°
2026-04-26 15:45 53.71535 9.64214 9286 ft 291 kts 69°
2026-04-26 15:46 53.72779 9.70721 9290 ft 291 kts 69°
2026-04-26 15:46 53.73400 9.73977 9292 ft 291 kts 69°
2026-04-26 15:46 53.74020 9.77228 9285 ft 291 kts 69°
2026-04-26 15:46 53.74432 9.79384 9283 ft 291 kts 69°
2026-04-26 15:47 53.75267 9.83752 8858 ft 292 kts 69°
2026-04-26 15:47 53.76548 9.90261 7590 ft 283 kts 69°
2026-04-26 15:47 53.77157 9.93270 6975 ft 261 kts 69°
2026-04-26 15:48 53.77745 9.96107 6346 ft 251 kts 69°
2026-04-26 15:48 53.78328 9.98846 5696 ft 245 kts 69°
2026-04-26 15:48 53.78907 10.01526 5048 ft 241 kts 69°
2026-04-26 15:48 53.79491 10.04197 4439 ft 245 kts 69°
2026-04-26 15:49 53.80088 10.06903 4068 ft 244 kts 69°
2026-04-26 15:49 53.80674 10.09566 3754 ft 238 kts 69°
2026-04-26 15:49 53.81246 10.12170 3364 ft 235 kts 69°
2026-04-26 15:49 53.81796 10.14723 3056 ft 232 kts 72°
2026-04-26 15:50 53.81858 10.17409 2991 ft 231 kts 105°
2026-04-26 15:50 53.81195 10.19886 2989 ft 233 kts 121°
2026-04-26 15:50 53.80334 10.22214 2988 ft 233 kts 123°
2026-04-26 15:50 53.79397 10.24442 2981 ft 231 kts 138°
2026-04-26 15:51 53.77985 10.25529 2985 ft 225 kts 179°
2026-04-26 15:51 53.76491 10.24925 2995 ft 223 kts 206°
2026-04-26 15:51 53.75204 10.23491 2987 ft 222 kts 224°
2026-04-26 15:51 53.74182 10.21541 2987 ft 222 kts 232°
2026-04-26 15:52 53.73215 10.19498 2999 ft 223 kts 232°
2026-04-26 15:52 53.72231 10.17478 2809 ft 222 kts 231°
2026-04-26 15:52 53.71240 10.15478 2479 ft 222 kts 231°
2026-04-26 15:52 53.70587 10.14154 2256 ft 221 kts 232°
2026-04-26 15:53 53.69286 10.11502 1835 ft 211 kts 231°
2026-04-26 15:53 53.68381 10.09665 1561 ft 196 kts 232°
2026-04-26 15:53 53.67543 10.07964 1301 ft 182 kts 232°
2026-04-26 15:53 53.66765 10.06382 1067 ft 169 kts 232°
2026-04-26 15:54 53.65969 10.04820 1079 ft 187 kts 232°
2026-04-26 15:54 53.65046 10.03085 1358 ft 207 kts 226°
2026-04-26 15:54 53.64034 10.01334 1911 ft 214 kts 221°
2026-04-26 15:54 53.62965 9.99627 2714 ft 214 kts 237°
2026-04-26 15:55 53.62116 9.97541 3496 ft 217 kts 235°
2026-04-26 15:55 53.61212 9.95490 3901 ft 219 kts 234°
2026-04-26 15:55 53.60298 9.93434 3988 ft 219 kts 234°
2026-04-26 15:55 53.59386 9.91383 3996 ft 218 kts 234°
2026-04-26 15:56 53.58461 9.89360 3987 ft 217 kts 231°
2026-04-26 15:56 53.57484 9.87417 3993 ft 219 kts 230°
2026-04-26 15:56 53.56420 9.85585 3987 ft 219 kts 213°
2026-04-26 15:56 53.54986 9.84845 3991 ft 220 kts 179°
2026-04-26 15:57 53.53479 9.85625 4000 ft 240 kts 147°
2026-04-26 15:57 53.52334 9.87788 3990 ft 258 kts 117°
2026-04-26 15:57 53.51869 9.90716 3993 ft 263 kts 90°
2026-04-26 15:57 53.52050 9.92719 3992 ft 263 kts 70°
2026-04-26 15:58 53.53223 9.96277 3993 ft 264 kts 55°
2026-04-26 15:58 53.54272 9.98809 3992 ft 264 kts 54°
2026-04-26 15:58 53.55333 10.01337 3994 ft 264 kts 54°
2026-04-26 15:58 53.56395 10.03855 3992 ft 264 kts 54°
2026-04-26 15:59 53.57449 10.06364 3998 ft 257 kts 54°
2026-04-26 15:59 53.58452 10.08758 3997 ft 243 kts 54°
2026-04-26 15:59 53.59397 10.11013 3990 ft 227 kts 54°
2026-04-26 15:59 53.60280 10.13136 3995 ft 219 kts 54°
2026-04-26 16:00 53.61140 10.15220 3990 ft 215 kts 54°
2026-04-26 16:00 53.61996 10.17288 3995 ft 214 kts 54°
2026-04-26 16:00 53.62849 10.19343 3991 ft 214 kts 54°
2026-04-26 16:00 53.63702 10.21413 3989 ft 215 kts 54°
2026-04-26 16:01 53.64552 10.23472 4007 ft 215 kts 54°
2026-04-26 16:01 53.65405 10.25530 3998 ft 214 kts 54°
2026-04-26 16:01 53.66250 10.27566 3987 ft 214 kts 54°
2026-04-26 16:01 53.67110 10.29648 3991 ft 214 kts 54°
2026-04-26 16:02 53.67964 10.31709 3984 ft 214 kts 54°
2026-04-26 16:02 53.68802 10.33735 3984 ft 214 kts 54°
2026-04-26 16:02 53.69653 10.35804 3984 ft 214 kts 54°
2026-04-26 16:02 53.70228 10.37204 3987 ft 214 kts 54°
2026-04-26 16:03 53.71358 10.39935 3986 ft 214 kts 54°
2026-04-26 16:03 53.72209 10.41990 3985 ft 214 kts 53°
2026-04-26 16:03 53.73297 10.43633 3985 ft 210 kts 21°
2026-04-26 16:03 53.74704 10.43911 3995 ft 205 kts 345°
2026-04-26 16:04 53.76008 10.42938 3993 ft 205 kts 327°
2026-04-26 16:04 53.77206 10.41618 3983 ft 205 kts 324°
2026-04-26 16:04 53.78316 10.40165 3985 ft 204 kts 308°
2026-04-26 16:04 53.78843 10.38006 3989 ft 201 kts 275°
2026-04-26 16:05 53.78827 10.35632 3986 ft 203 kts 265°
2026-04-26 16:05 53.78693 10.33248 3987 ft 203 kts 264°
2026-04-26 16:05 53.78418 10.30919 3983 ft 203 kts 250°
2026-04-26 16:05 53.77747 10.28815 3986 ft 204 kts 235°
2026-04-26 16:06 53.76861 10.26921 3990 ft 205 kts 231°
2026-04-26 16:06 53.75943 10.25072 3930 ft 206 kts 231°
2026-04-26 16:06 53.75034 10.23215 3698 ft 205 kts 231°
2026-04-26 16:06 53.74131 10.21364 3385 ft 204 kts 232°
2026-04-26 16:07 53.73240 10.19550 3079 ft 197 kts 231°
2026-04-26 16:07 53.72387 10.17814 2806 ft 192 kts 232°
2026-04-26 16:07 53.71555 10.16121 2556 ft 182 kts 231°
2026-04-26 16:07 53.70770 10.14522 2293 ft 171 kts 232°
2026-04-26 16:08 53.70058 10.13076 2091 ft 150 kts 232°
2026-04-26 16:08 53.69615 10.12175 1926 ft 146 kts 232°
2026-04-26 16:08 53.68782 10.10479 1677 ft 138 kts 232°
2026-04-26 16:08 53.68149 10.09196 1487 ft 145 kts 231°
2026-04-26 16:09 53.67501 10.07892 1274 ft 144 kts 231°
2026-04-26 16:09 53.66864 10.06580 1096 ft 148 kts 231°
2026-04-26 16:09 53.66220 10.05275 947 ft 143 kts 232°
2026-04-26 16:09 53.65583 10.04003 734 ft 142 kts 232°
2026-04-26 16:10 53.64924 10.02680 558 ft 148 kts 233°
2026-04-26 16:10 53.64274 10.01346 313 ft 144 kts 232°
2026-04-26 16:10 53.63629 10.00029 121 ft 146 kts 233°
2026-04-26 16:10 53.63068 9.98860 55 ft 100 kts 231°
2026-04-26 16:11 53.62805 9.98487 53 ft 27 kts 196°
2026-04-26 16:11 53.62735 9.98472 55 ft 4 kts 181°
2026-04-26 16:11 53.62707 9.98474 55 ft 4 kts 169°
2026-04-26 16:11 53.62684 9.98502 53 ft 5 kts 123°
2026-04-26 16:12 53.62691 9.98557 56 ft 5 kts 50°
2026-04-26 16:12 53.62727 9.98629 56 ft 11 kts 50°
2026-04-26 16:12 53.62837 9.98871 56 ft 13 kts 80°
2026-04-26 16:13 53.62778 9.98976 55 ft 14 kts 152°
2026-04-26 16:13 53.62754 9.99048 56 ft 7 kts 82°
2026-04-26 16:13 53.62774 9.99116 55 ft 0 kts 62°